Location: Sternwarte ZA, Rosenfeld-Brittheim
(48.2889°N, 8.6789°E)
Time: 03:34:14
(UTC+02:00)

ISS - Pass Details

Date: 22 May 2018
Orbit: 402 x 407 km, 51.6° (Epoch: 23 May)

Event Time Altitude Azimuth Distance (km) Brightness Sun altitude
Rises 01:27:24 0° 280° (W) 2,320 0.1 -21.4°
Reaches altitude 10° 01:29:32 10° 287° (WNW) 1,460 -0.8 -21.4°
Maximum altitude 01:32:42 44° 2° (N) 572 -2.7 -21.3°
Drops below altitude 10° 01:35:51 10° 76° (ENE) 1,458 -0.8 -21.3°
Sets 01:37:59 0° 83° (E) 2,318 0.2 -21.3°
